Year,Month,Day,Hour,Minute,Value (Times are PST for temperature in C)
2011,07,31,00,00,19.40
2011,07,31,00,01,19.40
2011,07,31,00,02,19.40
2011,07,31,00,03,19.30
2011,07,31,00,04,19.30
2011,07,31,00,05,19.30
2011,07,31,00,06,19.30
2011,07,31,00,07,19.20
2011,07,31,00,08,19.20
2011,07,31,00,09,19.20
2011,07,31,00,10,19.20
2011,07,31,00,11,19.20
2011,07,31,00,12,19.10
2011,07,31,00,13,19.10
2011,07,31,00,14,19.10
2011,07,31,00,15,19.10
2011,07,31,00,16,19.10
2011,07,31,00,17,19.10
2011,07,31,00,18,19.10
2011,07,31,00,19,19.10
2011,07,31,00,20,19.10
2011,07,31,00,21,19.10
2011,07,31,00,22,19.10
2011,07,31,00,23,19.10
2011,07,31,00,24,19.10
2011,07,31,00,25,19.10
2011,07,31,00,26,19.10
2011,07,31,00,27,19.10
2011,07,31,00,28,19.10
2011,07,31,00,29,19.10
2011,07,31,00,30,19.00
2011,07,31,00,31,18.90
2011,07,31,00,32,18.90
2011,07,31,00,33,18.90
2011,07,31,00,34,18.90
2011,07,31,00,35,18.90
2011,07,31,00,36,18.90
2011,07,31,00,37,18.90
2011,07,31,00,38,18.80
2011,07,31,00,39,18.70
2011,07,31,00,40,18.60
2011,07,31,00,41,18.50
2011,07,31,00,42,18.50
2011,07,31,00,43,18.40
2011,07,31,00,44,18.30
2011,07,31,00,45,18.30
2011,07,31,00,46,18.20
2011,07,31,00,47,18.20
2011,07,31,00,48,18.20
2011,07,31,00,49,18.20
2011,07,31,00,50,18.20
2011,07,31,00,51,18.20
2011,07,31,00,52,18.20
2011,07,31,00,53,18.30
2011,07,31,00,54,18.30
2011,07,31,00,55,18.30
2011,07,31,00,56,18.40
2011,07,31,00,57,18.40
2011,07,31,00,58,18.40
2011,07,31,00,59,18.50
2011,07,31,01,00,18.50
2011,07,31,01,01,18.50
2011,07,31,01,02,18.50
2011,07,31,01,03,18.50
2011,07,31,01,04,18.60
2011,07,31,01,05,18.60
2011,07,31,01,06,18.60
2011,07,31,01,07,18.50
2011,07,31,01,08,18.50
2011,07,31,01,09,18.50
2011,07,31,01,10,18.50
2011,07,31,01,11,18.50
2011,07,31,01,12,18.50
2011,07,31,01,13,18.40
2011,07,31,01,14,18.40
2011,07,31,01,15,18.40
2011,07,31,01,16,18.40
2011,07,31,01,17,18.40
2011,07,31,01,18,18.40
2011,07,31,01,19,18.30
2011,07,31,01,20,18.30
2011,07,31,01,21,18.30
2011,07,31,01,22,18.30
2011,07,31,01,23,18.30
2011,07,31,01,24,18.30
2011,07,31,01,25,18.30
2011,07,31,01,26,18.30
2011,07,31,01,27,18.30
2011,07,31,01,28,18.20
2011,07,31,01,29,18.20
2011,07,31,01,30,18.20
2011,07,31,01,31,18.20
2011,07,31,01,32,18.20
2011,07,31,01,33,18.20
2011,07,31,01,34,18.20
2011,07,31,01,35,18.20
2011,07,31,01,36,18.20
2011,07,31,01,37,18.20
2011,07,31,01,38,18.10
2011,07,31,01,39,18.10
2011,07,31,01,40,18.10
2011,07,31,01,41,17.90
2011,07,31,01,42,17.90
2011,07,31,01,43,17.90
2011,07,31,01,44,17.90
2011,07,31,01,45,17.90
2011,07,31,01,46,17.80
2011,07,31,01,47,17.80
2011,07,31,01,48,17.70
2011,07,31,01,49,17.70
2011,07,31,01,50,17.70
2011,07,31,01,51,17.60
2011,07,31,01,52,17.50
2011,07,31,01,53,17.50
2011,07,31,01,54,17.40
2011,07,31,01,55,17.40
2011,07,31,01,56,17.30
2011,07,31,01,57,17.30
2011,07,31,01,58,17.30
2011,07,31,01,59,17.20
2011,07,31,02,00,17.20
2011,07,31,02,01,17.20
2011,07,31,02,02,17.10
2011,07,31,02,03,17.10
2011,07,31,02,04,17.10
2011,07,31,02,05,17.10
2011,07,31,02,06,17.00
2011,07,31,02,07,17.00
2011,07,31,02,08,17.00
2011,07,31,02,09,17.00
2011,07,31,02,10,17.00
2011,07,31,02,11,17.00
2011,07,31,02,12,17.00
2011,07,31,02,13,17.00
2011,07,31,02,14,16.90
2011,07,31,02,15,16.90
2011,07,31,02,16,16.90
2011,07,31,02,17,16.90
2011,07,31,02,18,16.90
2011,07,31,02,19,16.90
2011,07,31,02,20,16.90
2011,07,31,02,21,16.90
2011,07,31,02,22,16.90
2011,07,31,02,23,16.90
2011,07,31,02,24,17.00
2011,07,31,02,25,17.00
2011,07,31,02,26,17.00
2011,07,31,02,27,17.00
2011,07,31,02,28,17.00
2011,07,31,02,29,17.00
2011,07,31,02,30,17.00
2011,07,31,02,31,17.00
2011,07,31,02,32,17.00
2011,07,31,02,33,17.00
2011,07,31,02,34,17.00
2011,07,31,02,35,17.00
2011,07,31,02,36,17.00
2011,07,31,02,37,17.00
2011,07,31,02,38,17.00
2011,07,31,02,39,17.00
2011,07,31,02,40,17.00
2011,07,31,02,41,17.00
2011,07,31,02,42,16.90
2011,07,31,02,43,16.90
2011,07,31,02,44,16.80
2011,07,31,02,45,16.80
2011,07,31,02,46,16.70
2011,07,31,02,47,16.70
2011,07,31,02,48,16.70
2011,07,31,02,49,16.60
2011,07,31,02,50,16.60
2011,07,31,02,51,16.60
2011,07,31,02,52,16.50
2011,07,31,02,53,16.40
2011,07,31,02,54,16.40
2011,07,31,02,55,16.40
2011,07,31,02,56,16.40
2011,07,31,02,57,16.40
2011,07,31,02,58,16.30
2011,07,31,02,59,16.30
2011,07,31,03,00,16.30
2011,07,31,03,01,16.30
2011,07,31,03,02,16.20
2011,07,31,03,03,16.20
2011,07,31,03,04,16.20
2011,07,31,03,05,16.20
2011,07,31,03,06,16.20
2011,07,31,03,07,16.20
2011,07,31,03,08,16.20
2011,07,31,03,09,16.20
2011,07,31,03,10,16.20
2011,07,31,03,11,16.20
2011,07,31,03,12,16.20
2011,07,31,03,13,16.20
2011,07,31,03,14,16.20
2011,07,31,03,15,16.20
2011,07,31,03,16,16.20
2011,07,31,03,17,16.20
2011,07,31,03,18,16.20
2011,07,31,03,19,16.20
2011,07,31,03,20,16.20
2011,07,31,03,21,16.20
2011,07,31,03,22,16.30
2011,07,31,03,23,16.30
2011,07,31,03,24,16.30
2011,07,31,03,25,16.30
2011,07,31,03,26,16.30
2011,07,31,03,27,16.30
2011,07,31,03,28,16.30
2011,07,31,03,29,16.30
2011,07,31,03,30,16.30
2011,07,31,03,31,16.30
2011,07,31,03,32,16.30
2011,07,31,03,33,16.30
2011,07,31,03,34,16.30
2011,07,31,03,35,16.30
2011,07,31,03,36,16.30
2011,07,31,03,37,16.30
2011,07,31,03,38,16.30
2011,07,31,03,39,16.30
2011,07,31,03,40,16.30
2011,07,31,03,41,16.30
2011,07,31,03,42,16.30
2011,07,31,03,43,16.30
2011,07,31,03,44,16.30
2011,07,31,03,45,16.30
2011,07,31,03,46,16.30
2011,07,31,03,47,16.30
2011,07,31,03,48,16.30
2011,07,31,03,49,16.30
2011,07,31,03,50,16.30
2011,07,31,03,51,16.40
2011,07,31,03,52,16.30
2011,07,31,03,53,16.30
2011,07,31,03,54,16.30
2011,07,31,03,55,16.30
2011,07,31,03,56,16.30
2011,07,31,03,57,16.30
2011,07,31,03,58,16.30
2011,07,31,03,59,16.30
2011,07,31,04,00,16.30
2011,07,31,04,01,16.30
2011,07,31,04,02,16.30
2011,07,31,04,03,16.30
2011,07,31,04,04,16.30
2011,07,31,04,05,16.30
2011,07,31,04,06,16.30
2011,07,31,04,07,16.30
2011,07,31,04,08,16.30
2011,07,31,04,09,16.30
2011,07,31,04,10,16.30
2011,07,31,04,11,16.30
2011,07,31,04,12,16.30
2011,07,31,04,13,16.30
2011,07,31,04,14,16.30
2011,07,31,04,15,16.30
2011,07,31,04,16,16.30
2011,07,31,04,17,16.30
2011,07,31,04,18,16.30
2011,07,31,04,19,16.20
2011,07,31,04,20,16.20
2011,07,31,04,21,16.20
2011,07,31,04,22,16.20
2011,07,31,04,23,16.10
2011,07,31,04,24,16.10
2011,07,31,04,25,16.10
2011,07,31,04,26,16.10
2011,07,31,04,27,16.10
2011,07,31,04,28,16.10
2011,07,31,04,29,16.10
2011,07,31,04,30,16.10
2011,07,31,04,31,16.00
2011,07,31,04,32,15.90
2011,07,31,04,33,15.90
2011,07,31,04,34,15.90
2011,07,31,04,35,15.90
2011,07,31,04,36,15.90
2011,07,31,04,37,15.90
2011,07,31,04,38,15.90
2011,07,31,04,39,15.90
2011,07,31,04,40,15.90
2011,07,31,04,41,15.90
2011,07,31,04,42,15.90
2011,07,31,04,43,15.90
2011,07,31,04,44,16.00
2011,07,31,04,45,16.10
2011,07,31,04,46,16.10
2011,07,31,04,47,16.10
2011,07,31,04,48,16.10
2011,07,31,04,49,16.10
2011,07,31,04,50,16.10
2011,07,31,04,51,16.10
2011,07,31,04,52,16.10
2011,07,31,04,53,16.10
2011,07,31,04,54,16.10
2011,07,31,04,55,16.20
2011,07,31,04,56,16.20
2011,07,31,04,57,16.20
2011,07,31,04,58,16.20
2011,07,31,04,59,16.20
2011,07,31,05,00,16.20
2011,07,31,05,01,16.20
2011,07,31,05,02,16.20
2011,07,31,05,03,16.20
2011,07,31,05,04,16.20
2011,07,31,05,05,16.20
2011,07,31,05,06,16.10
2011,07,31,05,07,16.10
2011,07,31,05,08,16.10
2011,07,31,05,09,16.10
2011,07,31,05,10,16.10
2011,07,31,05,11,16.10
2011,07,31,05,12,16.00
2011,07,31,05,13,15.90
2011,07,31,05,14,15.90
2011,07,31,05,15,15.80
2011,07,31,05,16,15.80
2011,07,31,05,17,15.70
2011,07,31,05,18,15.60
2011,07,31,05,19,15.60
2011,07,31,05,20,15.50
2011,07,31,05,21,15.50
2011,07,31,05,22,15.40
2011,07,31,05,23,15.30
2011,07,31,05,24,15.30
2011,07,31,05,25,15.30
2011,07,31,05,26,15.30
2011,07,31,05,27,15.30
2011,07,31,05,28,15.30
2011,07,31,05,29,15.20
2011,07,31,05,30,15.20
2011,07,31,05,31,15.20
2011,07,31,05,32,15.10
2011,07,31,05,33,15.10
2011,07,31,05,34,15.10
2011,07,31,05,35,15.10
2011,07,31,05,36,15.10
2011,07,31,05,37,15.10
2011,07,31,05,38,15.10
2011,07,31,05,39,15.10
2011,07,31,05,40,15.10
2011,07,31,05,41,15.10
2011,07,31,05,42,15.10
2011,07,31,05,43,15.20
2011,07,31,05,44,15.20
2011,07,31,05,45,15.20
2011,07,31,05,46,15.20
2011,07,31,05,47,15.30
2011,07,31,05,48,15.30
2011,07,31,05,49,15.30
2011,07,31,05,50,15.30
2011,07,31,05,51,15.30
2011,07,31,05,52,15.30
2011,07,31,05,53,15.30
2011,07,31,05,54,15.30
2011,07,31,05,55,15.30
2011,07,31,05,56,15.30
2011,07,31,05,57,15.30
2011,07,31,05,58,15.30
2011,07,31,05,59,15.30
2011,07,31,06,00,15.30
2011,07,31,06,01,15.20
2011,07,31,06,02,15.20
2011,07,31,06,03,15.10
2011,07,31,06,04,15.10
2011,07,31,06,05,15.00
2011,07,31,06,06,15.00
2011,07,31,06,07,14.90
2011,07,31,06,08,14.90
2011,07,31,06,09,14.90
2011,07,31,06,10,14.90
2011,07,31,06,11,14.80
2011,07,31,06,12,14.80
2011,07,31,06,13,14.80
2011,07,31,06,14,14.80
2011,07,31,06,15,14.80
2011,07,31,06,16,14.80
2011,07,31,06,17,14.80
2011,07,31,06,18,14.80
2011,07,31,06,19,14.80
2011,07,31,06,20,14.80
2011,07,31,06,21,14.80
2011,07,31,06,22,14.80
2011,07,31,06,23,14.70
2011,07,31,06,24,14.70
2011,07,31,06,25,14.70
2011,07,31,06,26,14.70
2011,07,31,06,27,14.70
2011,07,31,06,28,14.70
2011,07,31,06,29,14.70
2011,07,31,06,30,14.70
2011,07,31,06,31,14.70
2011,07,31,06,32,14.70
2011,07,31,06,33,14.70
2011,07,31,06,34,14.70
2011,07,31,06,35,14.70
2011,07,31,06,36,14.70
2011,07,31,06,37,14.70
2011,07,31,06,38,14.70
2011,07,31,06,39,14.70
2011,07,31,06,40,14.70
2011,07,31,06,41,14.70
2011,07,31,06,42,14.70
2011,07,31,06,43,14.70
2011,07,31,06,44,14.70
2011,07,31,06,45,14.60
2011,07,31,06,46,14.60
2011,07,31,06,47,14.50
2011,07,31,06,48,14.50
2011,07,31,06,49,14.40
2011,07,31,06,50,14.40
2011,07,31,06,51,14.30
2011,07,31,06,52,14.30
2011,07,31,06,53,14.20
2011,07,31,06,54,14.20
2011,07,31,06,55,14.20
2011,07,31,06,56,14.20
2011,07,31,06,57,14.20
2011,07,31,06,58,14.20
2011,07,31,06,59,14.20
2011,07,31,07,00,14.20
2011,07,31,07,01,14.20
2011,07,31,07,02,14.20
2011,07,31,07,03,14.20
2011,07,31,07,04,14.30
2011,07,31,07,05,14.30
2011,07,31,07,06,14.30
2011,07,31,07,07,14.20
2011,07,31,07,08,14.20
2011,07,31,07,09,14.20
2011,07,31,07,10,14.20
2011,07,31,07,11,14.20
2011,07,31,07,12,14.20
2011,07,31,07,13,14.20
2011,07,31,07,14,14.20
2011,07,31,07,15,14.20
2011,07,31,07,16,14.20
2011,07,31,07,17,14.20
2011,07,31,07,18,14.20
2011,07,31,07,19,14.20
2011,07,31,07,20,14.20
2011,07,31,07,21,14.20
2011,07,31,07,22,14.20
2011,07,31,07,23,14.20
2011,07,31,07,24,14.20
2011,07,31,07,25,14.20
2011,07,31,07,26,14.20
2011,07,31,07,27,14.20
2011,07,31,07,28,14.20
2011,07,31,07,29,14.20
2011,07,31,07,30,14.20
2011,07,31,07,31,14.20
2011,07,31,07,32,14.20
2011,07,31,07,33,14.20
2011,07,31,07,34,14.20
2011,07,31,07,35,14.30
2011,07,31,07,36,14.30
2011,07,31,07,37,14.30
2011,07,31,07,38,14.30
2011,07,31,07,39,14.30
2011,07,31,07,40,14.30
2011,07,31,07,41,14.40
2011,07,31,07,42,14.40
2011,07,31,07,43,14.40
2011,07,31,07,44,14.40
2011,07,31,07,45,14.50
2011,07,31,07,46,14.50
2011,07,31,07,47,14.50
2011,07,31,07,48,14.50
2011,07,31,07,49,14.60
2011,07,31,07,50,14.60
2011,07,31,07,51,14.60
2011,07,31,07,52,14.60
2011,07,31,07,53,14.70
2011,07,31,07,54,14.70
2011,07,31,07,55,14.70
2011,07,31,07,56,14.70
2011,07,31,07,57,14.70
2011,07,31,07,58,14.70
2011,07,31,07,59,14.70
2011,07,31,08,00,14.80
2011,07,31,08,01,14.80
2011,07,31,08,02,14.80
2011,07,31,08,03,14.80
2011,07,31,08,04,14.80
2011,07,31,08,05,14.80
2011,07,31,08,06,14.80
2011,07,31,08,07,14.80
2011,07,31,08,08,14.80
2011,07,31,08,09,14.70
2011,07,31,08,10,14.70
2011,07,31,08,11,14.80
2011,07,31,08,12,14.80
2011,07,31,08,13,14.80
2011,07,31,08,14,14.80
2011,07,31,08,15,14.80
2011,07,31,08,16,14.80
2011,07,31,08,17,14.80
2011,07,31,08,18,14.80
2011,07,31,08,19,14.80
2011,07,31,08,20,14.80
2011,07,31,08,21,14.80
2011,07,31,08,22,14.80
2011,07,31,08,23,14.80
2011,07,31,08,24,14.90
2011,07,31,08,25,14.90
2011,07,31,08,26,14.90
2011,07,31,08,27,14.90
2011,07,31,08,28,14.90
2011,07,31,08,29,15.00
2011,07,31,08,30,15.00
2011,07,31,08,31,15.00
2011,07,31,08,32,15.00
2011,07,31,08,33,15.00
2011,07,31,08,34,15.00
2011,07,31,08,35,15.10
2011,07,31,08,36,15.10
2011,07,31,08,37,15.10
2011,07,31,08,38,15.10
2011,07,31,08,39,15.10
2011,07,31,08,40,15.10
2011,07,31,08,41,15.20
2011,07,31,08,42,15.20
2011,07,31,08,43,15.20
2011,07,31,08,44,15.20
2011,07,31,08,45,15.30
2011,07,31,08,46,15.30
2011,07,31,08,47,15.30
2011,07,31,08,48,15.30
2011,07,31,08,49,15.30
2011,07,31,08,50,15.30
2011,07,31,08,51,15.40
2011,07,31,08,52,15.40
2011,07,31,08,53,15.40
2011,07,31,08,54,15.40
2011,07,31,08,55,15.40
2011,07,31,08,56,15.40
2011,07,31,08,57,15.40
2011,07,31,08,58,15.40
2011,07,31,08,59,15.40
2011,07,31,09,00,15.40
2011,07,31,09,01,15.50
2011,07,31,09,02,15.50
2011,07,31,09,03,15.60
2011,07,31,09,04,15.60
2011,07,31,09,05,15.70
2011,07,31,09,06,15.80
2011,07,31,09,07,15.80
2011,07,31,09,08,15.80
2011,07,31,09,09,15.80
2011,07,31,09,10,15.80
2011,07,31,09,11,15.90
2011,07,31,09,12,15.90
2011,07,31,09,13,15.90
2011,07,31,09,14,15.90
2011,07,31,09,15,15.90
2011,07,31,09,16,15.90
2011,07,31,09,17,15.90
2011,07,31,09,18,15.90
2011,07,31,09,19,15.90
2011,07,31,09,20,15.90
2011,07,31,09,21,16.00
2011,07,31,09,22,16.10
2011,07,31,09,23,16.10
2011,07,31,09,24,16.10
2011,07,31,09,25,16.10
2011,07,31,09,26,16.20
2011,07,31,09,27,16.20
2011,07,31,09,28,16.30
2011,07,31,09,29,16.30
2011,07,31,09,30,16.40
2011,07,31,09,31,16.50
2011,07,31,09,32,16.60
2011,07,31,09,33,16.70
2011,07,31,09,34,16.70
2011,07,31,09,35,16.70
2011,07,31,09,36,16.80
2011,07,31,09,37,16.80
2011,07,31,09,38,16.90
2011,07,31,09,39,16.90
2011,07,31,09,40,16.90
2011,07,31,09,41,16.90
2011,07,31,09,42,16.90
2011,07,31,09,43,16.90
2011,07,31,09,44,16.80
2011,07,31,09,45,16.80
2011,07,31,09,46,16.80
2011,07,31,09,47,16.80
2011,07,31,09,48,16.80
2011,07,31,09,49,16.70
2011,07,31,09,50,16.70
2011,07,31,09,51,16.70
2011,07,31,09,52,16.70
2011,07,31,09,53,16.70
2011,07,31,09,54,16.70
2011,07,31,09,55,16.70
2011,07,31,09,56,16.70
2011,07,31,09,57,16.70
2011,07,31,09,58,16.80
2011,07,31,09,59,16.90
2011,07,31,10,00,16.90
2011,07,31,10,01,17.00
2011,07,31,10,02,17.00
2011,07,31,10,03,17.10
2011,07,31,10,04,17.10
2011,07,31,10,05,17.00
2011,07,31,10,06,17.00
2011,07,31,10,07,16.90
2011,07,31,10,08,16.90
2011,07,31,10,09,16.90
2011,07,31,10,10,16.80
2011,07,31,10,11,16.80
2011,07,31,10,12,16.80
2011,07,31,10,13,16.80
2011,07,31,10,14,16.80
2011,07,31,10,15,16.80
2011,07,31,10,16,16.80
2011,07,31,10,17,16.80
2011,07,31,10,18,16.80
2011,07,31,10,19,16.80
2011,07,31,10,20,16.80
2011,07,31,10,21,16.80
2011,07,31,10,22,16.80
2011,07,31,10,23,16.90
2011,07,31,10,24,16.90
2011,07,31,10,25,17.00
2011,07,31,10,26,17.10
2011,07,31,10,27,17.20
2011,07,31,10,28,17.30
2011,07,31,10,29,17.30
2011,07,31,10,30,17.30
2011,07,31,10,31,17.30
2011,07,31,10,32,17.20
2011,07,31,10,33,17.30
2011,07,31,10,34,17.30
2011,07,31,10,35,17.30
2011,07,31,10,36,17.40
2011,07,31,10,37,17.40
2011,07,31,10,38,17.40
2011,07,31,10,39,17.50
2011,07,31,10,40,17.50
2011,07,31,10,41,17.50
2011,07,31,10,42,17.50
2011,07,31,10,43,17.50
2011,07,31,10,44,17.50
2011,07,31,10,45,17.50
2011,07,31,10,46,17.50
2011,07,31,10,47,17.50
2011,07,31,10,48,17.60
2011,07,31,10,49,17.60
2011,07,31,10,50,17.70
2011,07,31,10,51,17.70
2011,07,31,10,52,17.70
2011,07,31,10,53,17.80
2011,07,31,10,54,17.80
2011,07,31,10,55,17.80
2011,07,31,10,56,17.90
2011,07,31,10,57,17.90
2011,07,31,10,58,17.90
2011,07,31,10,59,18.00
2011,07,31,11,00,18.10
2011,07,31,11,01,18.10
2011,07,31,11,02,18.10
2011,07,31,11,03,18.10
2011,07,31,11,04,18.10
2011,07,31,11,05,18.20
2011,07,31,11,06,18.20
2011,07,31,11,07,18.20
2011,07,31,11,08,18.20
2011,07,31,11,09,18.20
2011,07,31,11,10,18.20
2011,07,31,11,11,18.20
2011,07,31,11,12,18.20
2011,07,31,11,13,18.20
2011,07,31,11,14,18.20
2011,07,31,11,15,18.30
2011,07,31,11,16,18.30
2011,07,31,11,17,18.30
2011,07,31,11,18,18.40
2011,07,31,11,19,18.40
2011,07,31,11,20,18.40
2011,07,31,11,21,18.50
2011,07,31,11,22,18.60
2011,07,31,11,23,18.60
2011,07,31,11,24,18.70
2011,07,31,11,25,18.70
2011,07,31,11,26,18.80
2011,07,31,11,27,18.80
2011,07,31,11,28,18.90
2011,07,31,11,29,18.90
2011,07,31,11,30,18.90
2011,07,31,11,31,18.90
2011,07,31,11,32,19.00
2011,07,31,11,33,19.10
2011,07,31,11,34,19.10
2011,07,31,11,35,19.10
2011,07,31,11,36,19.10
2011,07,31,11,37,19.10
2011,07,31,11,38,19.10
2011,07,31,11,39,19.10
2011,07,31,11,40,19.10
2011,07,31,11,41,19.10
2011,07,31,11,42,19.10
2011,07,31,11,43,19.10
2011,07,31,11,44,19.20
2011,07,31,11,45,19.30
2011,07,31,11,46,19.50
2011,07,31,11,47,19.60
2011,07,31,11,48,19.60
2011,07,31,11,49,19.70
2011,07,31,11,50,19.70
2011,07,31,11,51,19.70
2011,07,31,11,52,19.60
2011,07,31,11,53,19.70
2011,07,31,11,54,19.70
2011,07,31,11,55,19.80
2011,07,31,11,56,19.80
2011,07,31,11,57,19.90
2011,07,31,11,58,19.90
2011,07,31,11,59,19.90
2011,07,31,12,00,19.90
2011,07,31,12,01,19.90
2011,07,31,12,02,19.90
2011,07,31,12,03,19.90
2011,07,31,12,04,19.90
2011,07,31,12,05,19.90
2011,07,31,12,06,19.90
2011,07,31,12,07,19.90
2011,07,31,12,08,19.80
2011,07,31,12,09,19.80
2011,07,31,12,10,19.80
2011,07,31,12,11,19.80
2011,07,31,12,12,19.80
2011,07,31,12,13,19.80
2011,07,31,12,14,19.70
2011,07,31,12,15,19.80
2011,07,31,12,16,19.80
2011,07,31,12,17,19.80
2011,07,31,12,18,19.80
2011,07,31,12,19,19.90
2011,07,31,12,20,19.90
2011,07,31,12,21,19.90
2011,07,31,12,22,19.90
2011,07,31,12,23,20.00
2011,07,31,12,24,20.10
2011,07,31,12,25,20.20
2011,07,31,12,26,20.40
2011,07,31,12,27,20.50
2011,07,31,12,28,20.70
2011,07,31,12,29,20.70
2011,07,31,12,30,20.70
2011,07,31,12,31,20.80
2011,07,31,12,32,20.80
2011,07,31,12,33,20.80
2011,07,31,12,34,20.90
2011,07,31,12,35,21.00
2011,07,31,12,36,20.90
2011,07,31,12,37,20.90
2011,07,31,12,38,20.90
2011,07,31,12,39,20.80
2011,07,31,12,40,20.70
2011,07,31,12,41,20.70
2011,07,31,12,42,20.60
2011,07,31,12,43,20.50
2011,07,31,12,44,20.60
2011,07,31,12,45,20.80
2011,07,31,12,46,20.90
2011,07,31,12,47,20.90
2011,07,31,12,48,21.00
2011,07,31,12,49,21.10
2011,07,31,12,50,21.20
2011,07,31,12,51,21.30
2011,07,31,12,52,21.30
2011,07,31,12,53,21.30
2011,07,31,12,54,21.30
2011,07,31,12,55,21.30
2011,07,31,12,56,21.20
2011,07,31,12,57,21.10
2011,07,31,12,58,21.00
2011,07,31,12,59,21.00
2011,07,31,13,00,21.00
2011,07,31,13,01,21.10
2011,07,31,13,02,21.20
2011,07,31,13,03,21.30
2011,07,31,13,04,21.40
2011,07,31,13,05,21.60
2011,07,31,13,06,21.60
2011,07,31,13,07,21.80
2011,07,31,13,08,21.90
2011,07,31,13,09,22.10
2011,07,31,13,10,22.20
2011,07,31,13,11,22.30
2011,07,31,13,12,22.30
2011,07,31,13,13,22.30
2011,07,31,13,14,22.30
2011,07,31,13,15,22.30
2011,07,31,13,16,22.20
2011,07,31,13,17,22.00
2011,07,31,13,18,21.80
2011,07,31,13,19,21.70
2011,07,31,13,20,21.70
2011,07,31,13,21,21.70
2011,07,31,13,22,21.80
2011,07,31,13,23,21.70
2011,07,31,13,24,21.80
2011,07,31,13,25,21.90
2011,07,31,13,26,21.90
2011,07,31,13,27,21.90
2011,07,31,13,28,21.80
2011,07,31,13,29,21.80
2011,07,31,13,30,21.70
2011,07,31,13,31,21.70
2011,07,31,13,32,21.60
2011,07,31,13,33,21.60
2011,07,31,13,34,21.60
2011,07,31,13,35,21.60
2011,07,31,13,36,21.60
2011,07,31,13,37,21.60
2011,07,31,13,38,21.60
2011,07,31,13,39,21.60
2011,07,31,13,40,21.40
2011,07,31,13,41,21.40
2011,07,31,13,42,21.50
2011,07,31,13,43,21.40
2011,07,31,13,44,21.40
2011,07,31,13,45,21.40
2011,07,31,13,46,21.40
2011,07,31,13,47,21.30
2011,07,31,13,48,21.40
2011,07,31,13,49,21.40
2011,07,31,13,50,21.30
2011,07,31,13,51,21.30
2011,07,31,13,52,21.30
2011,07,31,13,53,21.30
2011,07,31,13,54,21.40
2011,07,31,13,55,21.40
2011,07,31,13,56,21.50
2011,07,31,13,57,21.60
2011,07,31,13,58,21.60
2011,07,31,13,59,21.60
2011,07,31,14,00,21.60
2011,07,31,14,01,21.50
2011,07,31,14,02,21.30
2011,07,31,14,03,21.20
2011,07,31,14,04,21.20
2011,07,31,14,05,21.20
2011,07,31,14,06,21.10
2011,07,31,14,07,21.20
2011,07,31,14,08,21.30
2011,07,31,14,09,21.30
2011,07,31,14,10,21.40
2011,07,31,14,11,21.50
2011,07,31,14,12,21.60
2011,07,31,14,13,21.70
2011,07,31,14,14,21.70
2011,07,31,14,15,21.60
2011,07,31,14,16,21.60
2011,07,31,14,17,21.60
2011,07,31,14,18,21.60
2011,07,31,14,19,21.60
2011,07,31,14,20,21.60
2011,07,31,14,21,21.60
2011,07,31,14,22,21.60
2011,07,31,14,23,21.60
2011,07,31,14,24,21.50
2011,07,31,14,25,21.30
2011,07,31,14,26,21.30
2011,07,31,14,27,21.20
2011,07,31,14,28,21.10
2011,07,31,14,29,21.10
2011,07,31,14,30,21.00
2011,07,31,14,31,21.00
2011,07,31,14,32,21.10
2011,07,31,14,33,21.20
2011,07,31,14,34,21.30
2011,07,31,14,35,21.40
2011,07,31,14,36,21.60
2011,07,31,14,37,21.60
2011,07,31,14,38,21.60
2011,07,31,14,39,21.60
2011,07,31,14,40,21.60
2011,07,31,14,41,21.60
2011,07,31,14,42,21.50
2011,07,31,14,43,21.30
2011,07,31,14,44,21.30
2011,07,31,14,45,21.30
2011,07,31,14,46,21.30
2011,07,31,14,47,21.20
2011,07,31,14,48,21.20
2011,07,31,14,49,21.10
2011,07,31,14,50,21.10
2011,07,31,14,51,21.10
2011,07,31,14,52,21.00
2011,07,31,14,53,21.00
2011,07,31,14,54,21.00
2011,07,31,14,55,20.90
2011,07,31,14,56,20.90
2011,07,31,14,57,21.00
2011,07,31,14,58,21.10
2011,07,31,14,59,21.10
2011,07,31,15,00,21.00
2011,07,31,15,01,21.00
2011,07,31,15,02,21.00
2011,07,31,15,03,21.00
2011,07,31,15,04,21.00
2011,07,31,15,05,21.00
2011,07,31,15,06,21.10
2011,07,31,15,07,21.00
2011,07,31,15,08,21.00
2011,07,31,15,09,21.00
2011,07,31,15,10,21.10
2011,07,31,15,11,21.20
2011,07,31,15,12,21.10
2011,07,31,15,13,21.10
2011,07,31,15,14,21.20
2011,07,31,15,15,21.20
2011,07,31,15,16,21.30
2011,07,31,15,17,21.30
2011,07,31,15,18,21.40
2011,07,31,15,19,21.40
2011,07,31,15,20,21.40
2011,07,31,15,21,21.40
2011,07,31,15,22,21.40
2011,07,31,15,23,21.40
2011,07,31,15,24,21.40
2011,07,31,15,25,21.40
2011,07,31,15,26,21.30
2011,07,31,15,27,21.20
2011,07,31,15,28,21.30
2011,07,31,15,29,21.20
2011,07,31,15,30,21.10
2011,07,31,15,31,21.00
2011,07,31,15,32,20.90
2011,07,31,15,33,20.90
2011,07,31,15,34,20.90
2011,07,31,15,35,20.90
2011,07,31,15,36,20.90
2011,07,31,15,37,20.90
2011,07,31,15,38,21.00
2011,07,31,15,39,21.10
2011,07,31,15,40,21.20
2011,07,31,15,41,21.20
2011,07,31,15,42,21.30
2011,07,31,15,43,21.40
2011,07,31,15,44,21.50
2011,07,31,15,45,21.60
2011,07,31,15,46,21.60
2011,07,31,15,47,21.60
2011,07,31,15,48,21.70
2011,07,31,15,49,21.70
2011,07,31,15,50,21.60
2011,07,31,15,51,21.60
2011,07,31,15,52,21.40
2011,07,31,15,53,21.40
2011,07,31,15,54,21.40
2011,07,31,15,55,21.40
2011,07,31,15,56,21.40
2011,07,31,15,57,21.50
2011,07,31,15,58,21.50
2011,07,31,15,59,21.40
2011,07,31,16,00,21.40
2011,07,31,16,01,21.40
2011,07,31,16,02,21.30
2011,07,31,16,03,21.20
2011,07,31,16,04,21.10
2011,07,31,16,05,21.00
2011,07,31,16,06,20.90
2011,07,31,16,07,20.90
2011,07,31,16,08,20.90
2011,07,31,16,09,20.80
2011,07,31,16,10,20.50
2011,07,31,16,11,20.20
2011,07,31,16,12,19.90
2011,07,31,16,13,19.50
2011,07,31,16,14,19.10
2011,07,31,16,15,18.90
2011,07,31,16,16,18.90
2011,07,31,16,17,19.00
2011,07,31,16,18,19.10
2011,07,31,16,19,19.00
2011,07,31,16,20,18.90
2011,07,31,16,21,18.90
2011,07,31,16,22,18.90
2011,07,31,16,23,18.90
2011,07,31,16,24,18.90
2011,07,31,16,25,18.90
2011,07,31,16,26,18.80
2011,07,31,16,27,18.70
2011,07,31,16,28,18.70
2011,07,31,16,29,18.70
2011,07,31,16,30,18.60
2011,07,31,16,31,18.50
2011,07,31,16,32,18.50
2011,07,31,16,33,18.40
2011,07,31,16,34,18.50
2011,07,31,16,35,18.60
2011,07,31,16,36,18.60
2011,07,31,16,37,18.70
2011,07,31,16,38,18.80
2011,07,31,16,39,18.90
2011,07,31,16,40,19.00
2011,07,31,16,41,19.10
2011,07,31,16,42,19.20
2011,07,31,16,43,19.10
2011,07,31,16,44,18.90
2011,07,31,16,45,18.60
2011,07,31,16,46,18.40
2011,07,31,16,47,18.20
2011,07,31,16,48,18.00
2011,07,31,16,49,17.90
2011,07,31,16,50,17.80
2011,07,31,16,51,17.90
2011,07,31,16,52,18.00
2011,07,31,16,53,18.20
2011,07,31,16,54,18.30
2011,07,31,16,55,18.50
2011,07,31,16,56,18.50
2011,07,31,16,57,18.60
2011,07,31,16,58,18.70
2011,07,31,16,59,18.90
2011,07,31,17,00,18.90
2011,07,31,17,01,19.10
2011,07,31,17,02,19.10
2011,07,31,17,03,19.10
2011,07,31,17,04,19.10
2011,07,31,17,05,19.10
2011,07,31,17,06,19.20
2011,07,31,17,07,19.20
2011,07,31,17,08,19.00
2011,07,31,17,09,18.60
2011,07,31,17,10,18.20
2011,07,31,17,11,18.00
2011,07,31,17,12,17.80
2011,07,31,17,13,17.70
2011,07,31,17,14,17.50
2011,07,31,17,15,17.40
2011,07,31,17,16,17.40
2011,07,31,17,17,17.50
2011,07,31,17,18,17.60
2011,07,31,17,19,17.70